#�ϑ�����,���ϕ���,���ϕ���,�ő啗��,�ő啗����������,�ő�u�ԕ���,�ő�u�ԕ�����������
#(�N����),(m/s)   ,(16����),(m/s)   ,(16����)        ,(m/s)       ,(16����)            
2016/12/14 0:01,1.7,7,1.7,5,3.1,9
2016/12/14 0:02,1.6,8,1.7,5,3.7,9
2016/12/14 0:03,1.7,8,1.7,5,3.5,10
2016/12/14 0:04,1.7,8,1.7,5,4.1,8
2016/12/14 0:05,1.8,8,1.8,8,4.4,8
2016/12/14 0:06,1.8,8,1.8,8,3.5,8
2016/12/14 0:07,1.9,8,1.9,8,2.7,7
2016/12/14 0:08,2,8,2,8,5.4,6
2016/12/14 0:09,2,8,2,8,4.3,6
2016/12/14 0:10,2,8,2,8,3.5,8
2016/12/14 0:11,1.9,8,1.9,8,3.2,9
2016/12/14 0:12,1.9,8,1.9,8,3.5,11
2016/12/14 0:13,1.9,8,1.9,8,3.5,11
2016/12/14 0:14,1.9,9,2,8,3.1,10
2016/12/14 0:15,1.7,9,1.9,8,1.9,11
2016/12/14 0:16,1.8,10,1.8,8,2.1,13
2016/12/14 0:17,1.9,10,1.9,8,3.3,12
2016/12/14 0:18,1.9,11,1.9,8,3.1,11
2016/12/14 0:19,1.9,11,1.9,8,4.2,10
2016/12/14 0:20,1.8,11,1.9,8,2.2,9
2016/12/14 0:21,1.8,12,1.8,8,1.3,2
2016/12/14 0:22,1.6,11,1.7,8,1.6,6
2016/12/14 0:23,1.5,11,1.6,8,2.2,5
2016/12/14 0:24,1.5,9,1.5,9,2.4,5
2016/12/14 0:25,1.5,7,1.5,10,1.5,6
2016/12/14 0:26,1.4,7,1.5,10,1.3,7
2016/12/14 0:27,1.4,7,1.4,10,2.2,10
2016/12/14 0:28,1.3,6,1.3,11,1.8,11
2016/12/14 0:29,1.3,5,1.3,11,7.5,4
2016/12/14 0:30,1.4,6,1.4,11,2.7,3
2016/12/14 0:31,1.4,6,1.4,12,3.2,9
2016/12/14 0:32,1.6,7,1.6,11,4.2,13
2016/12/14 0:33,1.6,8,1.6,7,3.1,11
2016/12/14 0:34,1.5,8,1.6,7,3.1,3
2016/12/14 0:35,1.7,10,1.7,9,5.5,10
2016/12/14 0:36,2,11,2,11,4.3,11
2016/12/14 0:37,2.1,11,2.1,11,3.8,11
2016/12/14 0:38,2.2,11,2.2,11,4.7,11
2016/12/14 0:39,2,11,2.2,11,3.6,10
2016/12/14 0:40,2,11,2,11,4.5,10
2016/12/14 0:41,2.1,11,2.1,11,3.6,9
2016/12/14 0:42,2.1,10,2.1,11,3.7,9
2016/12/14 0:43,2.2,10,2.2,11,6,9
2016/12/14 0:44,2.4,10,2.4,10,5.2,9
2016/12/14 0:45,2.5,10,2.5,10,7.7,8
2016/12/14 0:46,2.6,10,2.7,10,7.7,8
2016/12/14 0:47,2.4,10,2.6,10,2.5,13
2016/12/14 0:48,2.2,10,2.4,10,1.5,15
2016/12/14 0:49,2.2,9,2.2,10,3.3,8
2016/12/14 0:50,2.3,9,2.3,10,2.9,4
2016/12/14 0:51,2.3,9,2.3,10,3,15
2016/12/14 0:52,2.3,10,2.3,10,6.8,16
2016/12/14 0:53,2.3,12,2.4,10,4.8,16
2016/12/14 0:54,2.4,14,2.5,10,6.7,15
2016/12/14 0:55,2.3,15,2.4,10,9.1,15
2016/12/14 0:56,2.2,15,2.3,10,6.4,15
2016/12/14 0:57,2.6,16,2.6,16,8.6,15
2016/12/14 0:58,3,15,3,15,9,16
2016/12/14 0:59,3.3,15,3.3,15,8.4,16
2016/12/14 1:00,3.4,15,3.4,15,8.2,15
2016/12/14 1:01,3.6,15,3.6,15,5.1,15
2016/12/14 1:02,3.7,15,3.7,15,7.9,15
2016/12/14 1:03,3.9,15,3.9,15,10.8,15
2016/12/14 1:04,4.3,15,4.3,15,10.5,2
2016/12/14 1:05,4.5,15,4.5,15,10.6,16
2016/12/14 1:06,4.9,15,4.9,15,14.2,16
2016/12/14 1:07,5,15,5,15,13.6,16
2016/12/14 1:08,5.1,15,5.2,15,9.4,14
2016/12/14 1:09,5.5,15,5.5,15,15.6,15
2016/12/14 1:10,5.5,15,5.6,15,7.4,13
2016/12/14 1:11,5.6,15,5.6,15,10.6,15
2016/12/14 1:12,5.7,15,5.8,15,10.9,16
2016/12/14 1:13,5.7,15,5.7,15,8.7,16
2016/12/14 1:14,5.4,15,5.7,15,10.2,1
2016/12/14 1:15,5,15,5.3,15,6.7,15
2016/12/14 1:16,4.7,15,5,15,5.4,1
2016/12/14 1:17,4.5,16,4.7,15,5.6,16
2016/12/14 1:18,4.5,16,4.5,15,12.1,16
2016/12/14 1:19,4.1,16,4.5,15,6.9,1
2016/12/14 1:20,4,16,4.1,15,4.4,1
2016/12/14 1:21,3.9,16,4,15,6.7,16
2016/12/14 1:22,3.6,1,3.8,15,5.7,1
2016/12/14 1:23,3.4,1,3.7,15,5.4,1
2016/12/14 1:24,3.2,1,3.4,15,1.8,16
2016/12/14 1:25,3.2,1,3.2,15,7.5,1
2016/12/14 1:26,3.4,1,3.4,15,9.3,16
2016/12/14 1:27,3.3,1,3.4,16,6.1,1
2016/12/14 1:28,3.1,1,3.4,16,6.9,4
2016/12/14 1:29,3.2,1,3.2,16,8.7,16
2016/12/14 1:30,3.5,1,3.5,16,8.9,15
2016/12/14 1:31,3.4,1,3.5,16,3,16
2016/12/14 1:32,3.3,1,3.4,1,4.7,1
2016/12/14 1:33,3.4,1,3.4,1,8.9,16
2016/12/14 1:34,3.4,16,3.4,1,5.2,3
2016/12/14 1:35,3.4,16,3.4,1,6,16
2016/12/14 1:36,3.2,1,3.4,1,7.7,16
2016/12/14 1:37,3.4,16,3.4,1,9,16
2016/12/14 1:38,3.6,16,3.6,16,10.8,16
2016/12/14 1:39,3.3,16,3.6,16,5.1,16
2016/12/14 1:40,3.3,16,3.3,16,11.3,16
2016/12/14 1:41,3.5,16,3.5,16,9.3,16
2016/12/14 1:42,4,16,4,16,10.6,1
2016/12/14 1:43,4.1,16,4.1,16,8.7,1
2016/12/14 1:44,4.5,16,4.5,16,10.8,2
2016/12/14 1:45,4.5,16,4.5,16,8.7,2
2016/12/14 1:46,4.6,16,4.7,16,10.5,2
2016/12/14 1:47,4.4,16,4.6,16,6.5,16
2016/12/14 1:48,4.2,16,4.3,16,8.7,1
2016/12/14 1:49,4.2,1,4.2,16,9.8,16
2016/12/14 1:50,4.2,1,4.3,16,11.5,2
2016/12/14 1:51,4.3,16,4.4,16,10,16
2016/12/14 1:52,4.3,16,4.3,16,15.2,1
2016/12/14 1:53,4.9,16,4.9,16,18.6,16
2016/12/14 1:54,5,16,5,16,15.3,15
2016/12/14 1:55,5.2,16,5.2,16,8.9,1
2016/12/14 1:56,5.1,16,5.2,16,9.2,2
2016/12/14 1:57,5.4,16,5.4,16,9,1
2016/12/14 1:58,5.8,16,5.8,16,12.5,16
2016/12/14 1:59,6,16,6,16,12.3,15
2016/12/14 2:00,5.9,16,6,16,9.1,15
2016/12/14 2:01,6,1,6,16,10.8,16
2016/12/14 2:02,6.1,1,6.2,1,13.1,3
2016/12/14 2:03,5.6,1,6.2,1,11.9,2
2016/12/14 2:04,5.4,1,5.5,1,9.3,3
2016/12/14 2:05,5.8,1,5.8,1,17.4,2
2016/12/14 2:06,6,1,6.1,1,15,16
2016/12/14 2:07,6,1,6.1,1,9,1
2016/12/14 2:08,6,1,6.1,1,11.1,1
2016/12/14 2:09,6.3,1,6.4,1,12.6,2
2016/12/14 2:10,6.3,1,6.4,1,8.3,15
2016/12/14 2:11,6,1,6.3,1,9.1,2
2016/12/14 2:12,5.6,1,6,1,7.5,3
2016/12/14 2:13,5.6,1,5.6,1,9.3,1
2016/12/14 2:14,5.5,1,5.6,1,9.7,2
2016/12/14 2:15,5.1,1,5.6,1,12.4,1
2016/12/14 2:16,5.3,1,5.3,1,14.4,16
2016/12/14 2:17,5.9,1,5.9,1,16.2,1
2016/12/14 2:18,5.8,1,5.9,1,14.5,15
2016/12/14 2:19,6,16,6,1,17.7,16
2016/12/14 2:20,6.6,1,6.6,1,18.4,1
2016/12/14 2:21,7.3,16,7.3,16,17.2,16
2016/12/14 2:22,7.6,16,7.6,16,13.2,16
2016/12/14 2:23,8.1,16,8.1,16,19.9,16
2016/12/14 2:24,8.2,16,8.2,16,13.9,1
2016/12/14 2:25,9,16,9,16,19.7,16
2016/12/14 2:26,9.1,16,9.3,16,16.5,2
2016/12/14 2:27,8.9,16,9.2,16,17,1
2016/12/14 2:28,9,16,9.1,16,14.7,1
2016/12/14 2:29,9,16,9.1,16,15.3,15
2016/12/14 2:30,9.1,16,9.1,16,20.3,1
2016/12/14 2:31,9.1,16,9.3,16,20.3,1
2016/12/14 2:32,9.3,16,9.3,16,18,16
2016/12/14 2:33,9.3,16,9.5,16,18.5,16
2016/12/14 2:34,9.7,16,9.7,16,19,2
2016/12/14 2:35,9.5,16,9.7,16,18.4,16
2016/12/14 2:36,9.5,16,9.6,16,22.1,1
2016/12/14 2:37,9.7,16,9.8,16,20.7,16
2016/12/14 2:38,10,16,10,16,23.8,2
2016/12/14 2:39,10.3,16,10.3,16,20.4,16
2016/12/14 2:40,10,16,10.3,16,16.9,16
2016/12/14 2:41,9.9,16,10,16,16.2,1
2016/12/14 2:42,9.9,16,10,16,16.8,2
2016/12/14 2:43,10.1,16,10.1,16,21.2,16
2016/12/14 2:44,10.4,16,10.5,16,21.8,16
2016/12/14 2:45,10.4,16,10.7,16,29.5,16
2016/12/14 2:46,10.5,16,10.5,16,20.4,15
2016/12/14 2:47,10.4,16,10.4,16,17.6,2
2016/12/14 2:48,10.4,16,10.6,16,18.8,1
2016/12/14 2:49,10,16,10.4,16,16,16
2016/12/14 2:50,10.2,16,10.2,16,19.3,16
2016/12/14 2:51,10.7,16,10.7,16,21.5,16
2016/12/14 2:52,10.7,16,10.9,16,21.3,16
2016/12/14 2:53,10.2,16,10.6,16,18.5,16
2016/12/14 2:54,10,16,10.2,16,16.3,16
2016/12/14 2:55,10.1,16,10.1,16,25.6,16
2016/12/14 2:56,9.9,16,10.2,16,20.1,16
2016/12/14 2:57,9.8,16,10,16,17,2
2016/12/14 2:58,9.9,16,9.9,16,20.7,15
2016/12/14 2:59,9.8,16,10.1,16,17,1
2016/12/14 3:00,9.5,16,9.8,16,14.9,1
2016/12/14 3:01,8.9,16,9.4,16,11.9,1
2016/12/14 3:02,8.7,16,8.8,16,16.3,2
2016/12/14 3:03,9,1,9,16,21.1,1
2016/12/14 3:04,9.2,1,9.2,16,19.4,16
2016/12/14 3:05,8.4,1,9.1,16,12.2,16
2016/12/14 3:06,8.3,16,8.3,16,18.5,15
2016/12/14 3:07,8.7,16,8.7,16,21,16
2016/12/14 3:08,8.2,1,8.6,16,15.9,1
2016/12/14 3:09,8.4,1,8.4,16,16.8,16
2016/12/14 3:10,8.4,16,8.5,16,15.3,1
2016/12/14 3:11,8.6,16,8.6,1,14.8,16
2016/12/14 3:12,8.5,16,8.8,1,17.4,16
2016/12/14 3:13,8.8,16,8.9,1,22,16
2016/12/14 3:14,8.7,16,8.8,1,16.5,1
2016/12/14 3:15,9.1,16,9.1,16,18.9,1
2016/12/14 3:16,9,16,9.2,16,12.1,2
2016/12/14 3:17,9,16,9.2,16,19.7,16
2016/12/14 3:18,9,16,9,16,15.6,15
2016/12/14 3:19,8.8,16,9,16,15.8,16
2016/12/14 3:20,8.7,16,8.8,16,13.8,16
2016/12/14 3:21,8.5,16,8.6,16,11.4,16
2016/12/14 3:22,8.5,16,8.6,16,14.4,16
2016/12/14 3:23,8.2,16,8.5,16,11.8,1
2016/12/14 3:24,8,16,8.2,16,19,1
2016/12/14 3:25,7.5,1,8,16,15.9,15
2016/12/14 3:26,7.6,1,7.6,16,15.2,1
2016/12/14 3:27,7.1,1,7.6,16,16.9,1
2016/12/14 3:28,7,1,7,16,11.4,2
2016/12/14 3:29,6.7,1,6.9,16,11.3,1
2016/12/14 3:30,6.9,1,7,16,17.6,1
2016/12/14 3:31,6.9,1,7,16,12.6,3
2016/12/14 3:32,6.7,1,6.9,16,14.4,1
2016/12/14 3:33,6.5,1,6.7,16,12.6,1
2016/12/14 3:34,6.3,1,6.6,16,13,16
2016/12/14 3:35,6.2,1,6.2,1,10.7,1
2016/12/14 3:36,6.1,16,6.3,1,8.7,1
2016/12/14 3:37,6,16,6.2,1,12.6,15
2016/12/14 3:38,6.1,16,6.1,1,12.1,16
2016/12/14 3:39,6.5,16,6.5,1,14,2
2016/12/14 3:40,6.2,16,6.5,1,14.7,16
2016/12/14 3:41,6,16,6.2,1,10.3,15
2016/12/14 3:42,5.7,16,6,1,8.1,1
2016/12/14 3:43,5.4,16,5.7,1,7.8,16
2016/12/14 3:44,5.6,16,5.7,16,13.2,2
2016/12/14 3:45,6,16,6,16,19.4,1
2016/12/14 3:46,6.1,16,6.1,16,18.3,1
2016/12/14 3:47,6.4,16,6.4,16,16,15
2016/12/14 3:48,5.9,16,6.4,16,6,16
2016/12/14 3:49,5.5,1,5.8,16,9.5,16
2016/12/14 3:50,5.2,1,5.5,16,7.7,2
2016/12/14 3:51,5,1,5.1,16,13.5,15
2016/12/14 3:52,5.4,16,5.4,16,13.2,15
2016/12/14 3:53,5.3,1,5.4,16,5,4
2016/12/14 3:54,4.8,16,5.3,16,4.5,9
2016/12/14 3:55,4.2,1,4.8,16,4.1,6
2016/12/14 3:56,3.9,1,4.1,16,7,5
2016/12/14 3:57,3.6,1,3.8,16,10.3,14
2016/12/14 3:58,4.1,2,4.1,16,14.8,2
2016/12/14 3:59,4.3,1,4.3,1,11.7,16
2016/12/14 4:00,4.6,1,4.6,16,13.4,15
2016/12/14 4:01,4.8,1,4.9,16,10.5,1
2016/12/14 4:02,4.6,1,4.8,16,11.7,2
2016/12/14 4:03,5,1,5,1,12.6,1
2016/12/14 4:04,5,1,5,1,3.6,15
2016/12/14 4:05,4.9,1,5,1,2.7,3
2016/12/14 4:06,4.8,16,4.9,1,4.9,2
2016/12/14 4:07,4.9,16,5,1,13.1,15
2016/12/14 4:08,4.9,1,5,1,12.4,2
2016/12/14 4:09,4.7,1,4.9,1,8.7,16
2016/12/14 4:10,4.4,1,4.7,1,8.3,16
2016/12/14 4:11,4.3,1,4.5,1,9.9,16
2016/12/14 4:12,4.1,1,4.3,1,10.3,1
2016/12/14 4:13,4,1,4.1,1,13.3,4
2016/12/14 4:14,4.5,1,4.5,1,11.6,2
2016/12/14 4:15,4.9,1,4.9,16,9,1
2016/12/14 4:16,5.2,1,5.2,1,12.2,1
2016/12/14 4:17,5.2,1,5.3,1,10.9,16
2016/12/14 4:18,5,1,5.2,1,12.2,16
2016/12/14 4:19,5.5,1,5.5,1,15.4,15
2016/12/14 4:20,6,1,6,1,17.1,15
2016/12/14 4:21,6.5,1,6.5,1,19.3,2
2016/12/14 4:22,6.8,1,6.8,1,16.1,15
2016/12/14 4:23,7.4,1,7.4,1,21.6,16
2016/12/14 4:24,7.9,16,7.9,16,17.5,1
2016/12/14 4:25,8.6,16,8.6,16,18.3,16
2016/12/14 4:26,8.8,1,8.8,16,13.6,1
2016/12/14 4:27,8.9,16,9,16,16.7,1
2016/12/14 4:28,9.2,16,9.2,16,17.9,1
2016/12/14 4:29,9.4,16,9.4,16,17.7,15
2016/12/14 4:30,9.7,16,9.7,16,18.1,16
2016/12/14 4:31,9.5,16,9.8,16,17.2,1
2016/12/14 4:32,9.6,16,9.7,16,10.9,14
2016/12/14 4:33,9.2,16,9.5,16,15.6,1
2016/12/14 4:34,9.3,16,9.5,16,20.9,16
2016/12/14 4:35,8.8,16,9.3,16,14.5,1
2016/12/14 4:36,8.9,16,8.9,16,17,16
2016/12/14 4:37,9.1,16,9.1,16,16.7,16
2016/12/14 4:38,9.5,16,9.5,16,20.4,16
2016/12/14 4:39,9.3,16,9.5,16,17.8,16
2016/12/14 4:40,9.2,16,9.4,16,17.6,2
2016/12/14 4:41,9.7,16,9.7,16,19.8,16
2016/12/14 4:42,9.7,16,9.8,16,15.3,16
2016/12/14 4:43,9.7,16,9.9,16,14.9,16
2016/12/14 4:44,9.2,16,9.5,16,12.7,1
2016/12/14 4:45,9.3,16,9.3,16,15.3,1
2016/12/14 4:46,9.5,16,9.5,16,20.1,15
2016/12/14 4:47,9.6,16,9.7,16,19.4,16
2016/12/14 4:48,9.6,16,9.7,16,22.7,15
2016/12/14 4:49,10,16,10,16,19.8,15
2016/12/14 4:50,10,16,10.1,16,16.9,16
2016/12/14 4:51,9.9,16,10.1,16,21.3,2
2016/12/14 4:52,10.1,16,10.1,16,14.7,16
2016/12/14 4:53,10.1,16,10.2,16,13.8,14
2016/12/14 4:54,10.7,16,10.7,16,18.3,16
2016/12/14 4:55,10.7,16,10.7,16,15.6,16
2016/12/14 4:56,10.7,16,10.8,16,18.7,16
2016/12/14 4:57,10.6,16,10.6,16,16.3,16
2016/12/14 4:58,10.5,16,10.7,16,19.9,1
2016/12/14 4:59,10.1,16,10.6,16,15.3,1
2016/12/14 5:00,10.1,16,10.2,16,19.6,16
2016/12/14 5:01,10.1,16,10.1,16,21.9,16
2016/12/14 5:02,10.3,16,10.3,16,23.6,1
2016/12/14 5:03,10.9,16,10.9,16,23.5,16
2016/12/14 5:04,10.8,16,10.9,16,18.9,15
2016/12/14 5:05,11,16,11.3,16,21.6,16
2016/12/14 5:06,10.7,16,11,16,15.6,16
2016/12/14 5:07,11.1,16,11.1,16,23.7,16
2016/12/14 5:08,11.4,16,11.4,16,22,16
2016/12/14 5:09,11.7,16,11.7,16,19.4,16
2016/12/14 5:10,11.4,16,11.7,16,15.4,16
2016/12/14 5:11,11.2,16,11.5,16,16.7,16
2016/12/14 5:12,11.2,16,11.4,16,18.8,16
2016/12/14 5:13,11.1,16,11.2,16,18.8,16
2016/12/14 5:14,10.9,16,11.2,16,18.9,1
2016/12/14 5:15,10.7,16,10.8,16,14.4,16
2016/12/14 5:16,10.9,16,11,16,21.8,16
2016/12/14 5:17,10.8,16,11.1,16,20.5,1
2016/12/14 5:18,11,16,11.1,16,24,16
2016/12/14 5:19,11.3,16,11.3,16,22.4,15
2016/12/14 5:20,11.8,16,11.8,16,21.2,16
2016/12/14 5:21,12.1,16,12.1,16,20.7,16
2016/12/14 5:22,11.5,16,12,16,15.3,15
2016/12/14 5:23,11.5,16,11.5,16,20.7,16
2016/12/14 5:24,11.7,16,11.7,16,20.1,16
2016/12/14 5:25,11.5,16,11.8,16,14.5,1
2016/12/14 5:26,11.5,16,11.5,16,17.2,1
2016/12/14 5:27,11.6,16,11.6,16,23.3,16
2016/12/14 5:28,11,16,11.6,16,18.1,16
2016/12/14 5:29,10.6,16,10.9,16,22.4,15
2016/12/14 5:30,10.3,16,10.6,16,22.3,16
2016/12/14 5:31,10.2,16,10.4,16,19.6,14
2016/12/14 5:32,10.6,16,10.6,16,21.5,1
2016/12/14 5:33,10.2,16,10.6,16,16.8,16
2016/12/14 5:34,9.8,16,10.1,16,14.4,1
2016/12/14 5:35,10,16,10,16,15.1,16
2016/12/14 5:36,9.8,16,10.2,16,16.5,1
2016/12/14 5:37,9,16,9.8,16,11.5,15
2016/12/14 5:38,8.8,16,9.1,16,14.7,16
2016/12/14 5:39,8.5,16,8.8,16,14,16
2016/12/14 5:40,8.2,16,8.4,16,13,15
2016/12/14 5:41,7.7,16,8.1,16,13.3,16
2016/12/14 5:42,7.4,16,7.7,16,15.2,16
2016/12/14 5:43,7.6,16,7.7,16,20.4,1
2016/12/14 5:44,7.7,16,7.8,16,17.7,1
2016/12/14 5:45,7.4,16,7.7,16,13.6,16
2016/12/14 5:46,6.9,16,7.3,16,9.1,16
2016/12/14 5:47,6.7,16,6.9,16,6.1,16
2016/12/14 5:48,6.2,16,6.6,16,6.5,16
2016/12/14 5:49,6.1,16,6.2,16,15.2,16
2016/12/14 5:50,5.9,16,6.1,16,9.8,16
2016/12/14 5:51,5.6,16,5.9,16,7.5,14
2016/12/14 5:52,5.2,16,5.6,16,9.4,1
2016/12/14 5:53,4.6,16,5.2,16,7.8,16
2016/12/14 5:54,4,16,4.5,16,5.6,13
2016/12/14 5:55,3.6,16,3.9,16,9.8,16
2016/12/14 5:56,3.8,16,3.8,16,12.4,1
2016/12/14 5:57,4,16,4,16,7.7,13
2016/12/14 5:58,4.2,16,4.2,16,9.3,11
2016/12/14 5:59,4.2,16,4.2,16,11.9,16
2016/12/14 6:00,4.1,16,4.3,16,10.5,1
2016/12/14 6:01,4.6,16,4.6,16,14.2,14
2016/12/14 6:02,5.1,16,5.1,16,13.9,16
2016/12/14 6:03,5.5,16,5.5,16,13.9,16
2016/12/14 6:04,5.8,16,5.8,16,16.8,15
2016/12/14 6:05,5.9,16,6,16,7.7,15
2016/12/14 6:06,5.8,16,5.9,16,9.2,16
2016/12/14 6:07,5.8,16,5.8,16,9.1,3
2016/12/14 6:08,5.7,1,5.8,16,8.7,16
2016/12/14 6:09,6.1,1,6.1,1,16.7,15
2016/12/14 6:10,6.1,16,6.1,1,12.6,1
2016/12/14 6:11,6.2,16,6.4,16,15,16
2016/12/14 6:12,6.1,16,6.2,16,19.2,1
2016/12/14 6:13,5.9,16,6.2,16,10.6,16
2016/12/14 6:14,5.9,16,5.9,16,10.2,16
2016/12/14 6:15,5.7,16,5.9,16,7.1,16
2016/12/14 6:16,5.7,16,5.7,16,9.7,2
2016/12/14 6:17,5.7,16,5.7,16,8.9,15
2016/12/14 6:18,5.7,16,5.7,16,9.3,14
2016/12/14 6:19,5.1,16,5.5,16,6.9,16
2016/12/14 6:20,5.2,16,5.2,16,13,16
2016/12/14 6:21,5,16,5.1,16,17,1
2016/12/14 6:22,4.7,16,4.9,16,12.8,1
2016/12/14 6:23,4.6,16,4.7,16,9.5,2
2016/12/14 6:24,4.5,16,4.5,16,10,16
2016/12/14 6:25,4.9,16,4.9,16,10.5,16
2016/12/14 6:26,4.7,16,4.9,16,8.6,14
2016/12/14 6:27,4.8,1,4.9,16,11,2
2016/12/14 6:28,4.5,1,4.8,16,4.7,2
2016/12/14 6:29,4.4,1,4.5,16,5.6,16
2016/12/14 6:30,4.1,1,4.4,16,6,2
2016/12/14 6:31,3.6,1,4.1,16,5.2,14
2016/12/14 6:32,3.4,1,3.6,16,6.3,2
2016/12/14 6:33,3.2,1,3.3,16,3.2,10
2016/12/14 6:34,2.9,1,3.2,16,3.8,16
2016/12/14 6:35,2.6,1,2.9,16,6.4,16
2016/12/14 6:36,2.7,1,2.7,16,7.5,9
2016/12/14 6:37,2.3,1,2.7,1,5.6,10
2016/12/14 6:38,2.6,1,2.6,1,7,4
2016/12/14 6:39,2.5,2,2.6,1,6.1,6
2016/12/14 6:40,2.3,3,2.4,1,4.1,16
2016/12/14 6:41,2.3,4,2.3,1,6.8,8
2016/12/14 6:42,2.2,4,2.3,1,2.7,16
2016/12/14 6:43,2.4,3,2.4,1,6.2,2
2016/12/14 6:44,2.5,4,2.5,1,5,3
2016/12/14 6:45,2.6,4,2.6,1,7,4
2016/12/14 6:46,2.5,3,2.7,1,5.8,1
2016/12/14 6:47,2.5,3,2.5,4,2.9,4
2016/12/14 6:48,2.3,2,2.5,4,3.5,15
2016/12/14 6:49,2.4,1,2.4,4,5.6,4
2016/12/14 6:50,2.9,1,2.9,1,12.6,2
2016/12/14 6:51,2.9,1,3,1,7.5,1
2016/12/14 6:52,2.8,1,2.9,1,2.4,4
2016/12/14 6:53,2.7,1,2.8,1,4.7,10
2016/12/14 6:54,2.7,1,2.7,1,4.4,11
2016/12/14 6:55,2.5,16,2.7,1,4.4,14
2016/12/14 6:56,2.9,15,2.9,1,16.9,16
2016/12/14 6:57,3.3,15,3.3,15,12.6,1
2016/12/14 6:58,3.3,15,3.3,15,4.5,4
2016/12/14 6:59,3.5,1,3.5,1,8.3,4
2016/12/14 7:00,3.2,1,3.4,1,8.5,5
2016/12/14 7:01,3.6,2,3.6,2,9.4,1
2016/12/14 7:02,4,16,4,16,11.5,16
2016/12/14 7:03,4.5,1,4.5,1,13.6,2
2016/12/14 7:04,4.9,1,4.9,1,10.5,16
2016/12/14 7:05,5,1,5.1,1,8.7,16
2016/12/14 7:06,4.5,1,5,1,3.8,2
2016/12/14 7:07,4.3,1,4.4,1,8.2,1
2016/12/14 7:08,4.7,1,4.7,1,11.5,2
2016/12/14 7:09,5.2,1,5.2,1,20.5,16
2016/12/14 7:10,5.4,1,5.4,1,12.7,16
2016/12/14 7:11,5.5,16,5.5,16,12.7,1
2016/12/14 7:12,5.5,16,5.5,16,12.2,1
2016/12/14 7:13,5.6,16,5.6,16,11.8,1
2016/12/14 7:14,5.3,1,5.7,16,7,16
2016/12/14 7:15,5.5,1,5.5,16,11.6,1
2016/12/14 7:16,5.7,1,5.7,16,8.4,3
2016/12/14 7:17,5.7,1,5.7,16,5.2,5
2016/12/14 7:18,5.4,1,5.6,16,4.4,4
2016/12/14 7:19,4.9,2,5.3,16,9.3,1
2016/12/14 7:20,4.7,1,4.8,16,9.3,5
2016/12/14 7:21,4.4,2,4.8,16,9.2,2
2016/12/14 7:22,4,2,4.3,16,4.1,7
2016/12/14 7:23,3.4,2,3.9,16,4.5,8
2016/12/14 7:24,3.2,2,3.4,1,3.8,8
2016/12/14 7:25,3.1,2,3.2,1,9.1,2
2016/12/14 7:26,3,2,3.1,1,8.3,1
2016/12/14 7:27,2.9,1,3,1,5.1,5
2016/12/14 7:28,3,1,3,1,5.5,2
2016/12/14 7:29,2.8,1,3,2,4.8,1
2016/12/14 7:30,2.8,1,2.9,2,7.2,2
2016/12/14 7:31,2.9,1,2.9,2,7.8,16
2016/12/14 7:32,2.9,1,2.9,2,7.1,16
2016/12/14 7:33,3.3,1,3.3,2,11.9,2
2016/12/14 7:34,3.7,1,3.7,1,11.3,16
2016/12/14 7:35,3.8,1,3.8,1,9,15
2016/12/14 7:36,4,1,4,1,9,16
2016/12/14 7:37,4,16,4,1,4.4,14
2016/12/14 7:38,3.9,16,4,1,6.1,2
2016/12/14 7:39,4.2,16,4.2,16,10.7,1
2016/12/14 7:40,4.1,16,4.1,16,7.9,2
2016/12/14 7:41,4.1,16,4.2,16,10.8,14
2016/12/14 7:42,4.4,16,4.4,16,9.3,16
2016/12/14 7:43,4.3,16,4.5,16,11.5,16
2016/12/14 7:44,4.2,16,4.4,16,11.6,1
2016/12/14 7:45,4.4,16,4.4,16,13.4,2
2016/12/14 7:46,4.4,1,4.4,16,11.7,16
2016/12/14 7:47,4.4,1,4.4,16,5.1,16
2016/12/14 7:48,4.4,1,4.5,16,7.5,1
2016/12/14 7:49,4.5,1,4.5,16,10.5,1
2016/12/14 7:50,4.7,1,4.8,1,12.6,16
2016/12/14 7:51,4.6,1,4.7,1,6.1,2
2016/12/14 7:52,4.6,1,4.7,1,10.2,1
2016/12/14 7:53,4.5,1,4.6,1,8.4,2
2016/12/14 7:54,4.1,2,4.4,1,4.9,2
2016/12/14 7:55,4,2,4.2,1,11.5,15
2016/12/14 7:56,4.1,1,4.1,1,14,1
2016/12/14 7:57,4.3,2,4.3,1,11,15
2016/12/14 7:58,4.4,1,4.4,1,7.9,15
2016/12/14 7:59,4.1,1,4.4,1,8.7,16
2016/12/14 8:00,3.7,1,4,1,3,1
2016/12/14 8:01,3.9,1,3.9,1,9.1,15
2016/12/14 8:02,3.6,1,3.8,1,8.9,16
2016/12/14 8:03,3.7,1,3.7,1,10.5,15
2016/12/14 8:04,4,16,4,1,8.6,2
2016/12/14 8:05,3.9,16,4,1,8.5,1
2016/12/14 8:06,4.1,16,4.2,1,14.4,1
2016/12/14 8:07,4.3,16,4.3,1,16.5,16
2016/12/14 8:08,4.4,16,4.4,1,17.4,16
2016/12/14 8:09,4.7,16,4.7,16,11.9,1
2016/12/14 8:10,5.2,16,5.2,16,11.6,16
2016/12/14 8:11,5.7,16,5.7,16,16.9,16
2016/12/14 8:12,5.8,16,5.9,16,14.7,1
2016/12/14 8:13,6.1,16,6.1,16,12.7,1
2016/12/14 8:14,6.2,16,6.2,16,19,16
2016/12/14 8:15,6.7,16,6.7,16,17,15
2016/12/14 8:16,6.8,16,6.9,16,17.5,16
2016/12/14 8:17,6.8,16,7,16,14.8,15
2016/12/14 8:18,6.9,16,6.9,16,13,14
2016/12/14 8:19,6.9,16,7,16,13.2,15
2016/12/14 8:20,7.1,16,7.1,16,14.2,1
2016/12/14 8:21,6.4,16,7.1,16,9.4,1
2016/12/14 8:22,6.8,16,6.8,16,13.1,16
2016/12/14 8:23,6.8,16,6.8,16,13.3,16
2016/12/14 8:24,7.1,16,7.2,16,18.8,16
2016/12/14 8:25,7.1,16,7.2,16,15.7,2
2016/12/14 8:26,7,16,7,16,15.7,1
2016/12/14 8:27,6.9,16,6.9,16,14.2,16
2016/12/14 8:28,7.2,16,7.2,16,15.3,1
2016/12/14 8:29,7.4,1,7.4,1,18.5,15
2016/12/14 8:30,7.2,1,7.5,1,11.9,2
2016/12/14 8:31,7.2,1,7.2,1,9.2,15
2016/12/14 8:32,7.4,1,7.4,1,16.6,1
2016/12/14 8:33,7.5,1,7.7,1,11.4,1
2016/12/14 8:34,7.1,1,7.4,1,15.8,1
2016/12/14 8:35,7,1,7.1,1,15.4,1
2016/12/14 8:36,6.8,1,6.9,1,14,16
2016/12/14 8:37,6.6,1,6.9,1,13,1
2016/12/14 8:38,6.4,16,6.5,1,11,15
2016/12/14 8:39,6.3,16,6.6,1,16.8,16
2016/12/14 8:40,6.3,16,6.4,1,11.3,1
2016/12/14 8:41,6.6,16,6.6,1,12.7,16
2016/12/14 8:42,6.2,16,6.7,1,11.9,1
2016/12/14 8:43,6.4,16,6.4,1,16.2,15
2016/12/14 8:44,6.5,16,6.6,1,9.1,1
2016/12/14 8:45,6.2,16,6.4,1,12.2,16
2016/12/14 8:46,5.8,16,6.2,1,5.4,2
2016/12/14 8:47,5.9,16,5.9,16,10.8,15
2016/12/14 8:48,5.8,1,5.9,16,11.5,2
2016/12/14 8:49,5.7,16,5.8,16,14.8,1
2016/12/14 8:50,5.8,16,5.9,16,13.9,2
2016/12/14 8:51,6,16,6.2,16,14.5,16
2016/12/14 8:52,6.1,16,6.1,16,12.3,1
2016/12/14 8:53,6.2,16,6.2,16,19.3,15
2016/12/14 8:54,6.7,16,6.7,16,19.9,16
2016/12/14 8:55,6.7,16,6.8,16,13.9,1
2016/12/14 8:56,7.1,16,7.1,16,12.8,1
2016/12/14 8:57,7.5,16,7.5,16,13.5,16
2016/12/14 8:58,7.4,16,7.6,16,12.7,1
2016/12/14 8:59,7.4,16,7.4,16,15.2,1
2016/12/14 9:00,7.6,16,7.7,16,17.4,1
2016/12/14 9:01,7.5,16,7.7,16,13.9,15
2016/12/14 9:02,7.5,16,7.6,16,11.7,1
2016/12/14 9:03,6.8,16,7.4,16,8.5,16
2016/12/14 9:04,6.3,16,6.8,16,12.4,1
2016/12/14 9:05,5.9,16,6.2,16,7.6,13
2016/12/14 9:06,6.1,1,6.1,16,17.4,2
2016/12/14 9:07,5.8,1,6.1,16,14.5,2
2016/12/14 9:08,5.6,1,5.7,16,9.2,3
2016/12/14 9:09,5.4,1,5.7,16,10.3,2
2016/12/14 9:10,4.9,1,5.3,16,11.6,2
2016/12/14 9:11,4.5,1,4.8,16,9.4,16
2016/12/14 9:12,4.4,1,4.6,16,6.8,1
2016/12/14 9:13,4.5,1,4.5,16,10.5,16
2016/12/14 9:14,4.8,1,4.8,16,14.9,16
2016/12/14 9:15,5.1,1,5.1,1,9.8,16
2016/12/14 9:16,4.6,1,5.1,1,5.1,2
2016/12/14 9:17,4.5,1,4.6,1,10.3,16
2016/12/14 9:18,4.9,1,4.9,1,12.6,1
2016/12/14 9:19,5.3,16,5.3,1,15.6,15
2016/12/14 9:20,5.2,16,5.3,1,6.8,16
2016/12/14 9:21,5.2,16,5.2,1,11.9,1
2016/12/14 9:22,5.7,16,5.7,16,15.9,16
2016/12/14 9:23,5.9,16,5.9,16,12.2,15
2016/12/14 9:24,5.6,16,5.9,16,9.4,16
2016/12/14 9:25,5.8,16,5.8,16,13,1
2016/12/14 9:26,6.4,16,6.4,16,14.4,2
2016/12/14 9:27,6.4,16,6.6,16,10.9,1
2016/12/14 9:28,6.5,16,6.5,16,15.2,16
2016/12/14 9:29,6.2,16,6.5,16,12.8,15
2016/12/14 9:30,6.4,16,6.4,16,11.9,2
2016/12/14 9:31,6.6,1,6.6,16,10.7,1
2016/12/14 9:32,6,1,6.4,16,12.6,16
2016/12/14 9:33,5.9,1,6.1,16,10.3,16
2016/12/14 9:34,6,1,6,16,10.8,14
2016/12/14 9:35,5.7,1,6,16,9,15
2016/12/14 9:36,5.5,1,5.7,16,11.4,1
2016/12/14 9:37,5.5,1,5.5,16,13.8,16
2016/12/14 9:38,5.4,1,5.8,16,13.3,16
2016/12/14 9:39,5,1,5.4,16,1.5,13
2016/12/14 9:40,4.5,1,4.9,16,2.6,12
2016/12/14 9:41,4.3,1,4.4,1,8.4,3
2016/12/14 9:42,4.4,1,4.4,1,8.7,15
2016/12/14 9:43,4.2,1,4.3,1,9,2
2016/12/14 9:44,4.2,1,4.2,1,11.1,15
2016/12/14 9:45,3.9,1,4.1,1,6.5,2
2016/12/14 9:46,4.1,1,4.1,1,14.5,15
2016/12/14 9:47,4.2,1,4.4,1,11.7,1
2016/12/14 9:48,4,1,4.2,1,9.9,1
2016/12/14 9:49,4.4,1,4.4,1,10.2,2
2016/12/14 9:50,4.6,1,4.6,1,6,1
2016/12/14 9:51,4.6,1,4.6,1,7,1
2016/12/14 9:52,4.3,1,4.5,1,4.9,1
2016/12/14 9:53,4.1,16,4.2,1,4.9,16
2016/12/14 9:54,4.4,16,4.5,1,17.2,15
2016/12/14 9:55,4.9,16,4.9,16,11.6,2
2016/12/14 9:56,4.7,16,4.9,16,11,3
2016/12/14 9:57,4.6,16,4.7,16,8.4,16
2016/12/14 9:58,4.6,16,4.7,16,9.5,16
2016/12/14 9:59,4.3,16,4.6,16,6.9,16
2016/12/14 10:00,4.4,16,4.4,16,7.2,2
2016/12/14 10:01,4.3,1,4.4,16,5.2,2
2016/12/14 10:02,4.7,1,4.7,16,11.9,1
2016/12/14 10:03,5,1,5,1,11.5,2
2016/12/14 10:04,4.6,1,4.9,1,9.7,16
2016/12/14 10:05,4.3,1,4.5,1,7.9,1
2016/12/14 10:06,3.8,1,4.3,1,4.5,15
2016/12/14 10:07,3.5,1,3.8,1,5,16
2016/12/14 10:08,3.5,1,3.6,1,7.8,16
2016/12/14 10:09,3.7,16,3.7,1,10.1,14
2016/12/14 10:10,3.8,16,3.8,1,12.5,15
2016/12/14 10:11,3.6,16,3.8,1,3.5,4
2016/12/14 10:12,3.3,16,3.6,1,5.6,3
2016/12/14 10:13,3.1,16,3.2,1,6.5,16
2016/12/14 10:14,3,16,3.2,1,7,7
2016/12/14 10:15,2.8,15,3.1,1,3.6,13
2016/12/14 10:16,3,16,3,1,4.9,6
2016/12/14 10:17,3.2,16,3.2,16,8.6,16
2016/12/14 10:18,3.2,16,3.2,16,6.3,15
2016/12/14 10:19,3,16,3.2,16,6.1,1
2016/12/14 10:20,3,16,3,16,9.9,1
2016/12/14 10:21,3.2,16,3.2,16,5.6,2
2016/12/14 10:22,3.2,16,3.2,16,3.1,16
2016/12/14 10:23,2.8,1,3.1,16,1.5,8
2016/12/14 10:24,2.7,1,2.8,16,2.9,14
2016/12/14 10:25,2.7,1,2.7,16,4.1,10
2016/12/14 10:26,2.6,1,2.7,16,6.2,1
2016/12/14 10:27,2.6,1,2.7,16,6.9,2
2016/12/14 10:28,2.4,1,2.6,16,3.7,14
2016/12/14 10:29,2.6,1,2.6,16,8.6,15
2016/12/14 10:30,2.7,1,2.7,16,9.7,16
2016/12/14 10:31,3.4,1,3.4,1,13.5,1
2016/12/14 10:32,3.7,1,3.7,1,13.4,1
2016/12/14 10:33,3.8,1,3.8,1,5.1,15
2016/12/14 10:34,4,1,4,1,6.1,16
2016/12/14 10:35,4,1,4,1,7.6,4
2016/12/14 10:36,4.1,1,4.1,1,6,14
2016/12/14 10:37,4.3,16,4.3,16,10.1,16
2016/12/14 10:38,4.7,16,4.7,16,11.1,16
2016/12/14 10:39,4.6,16,4.8,16,6.5,15
2016/12/14 10:40,4.4,16,4.6,16,7.7,7
2016/12/14 10:41,3.6,16,4.4,16,4.4,7
2016/12/14 10:42,3.2,15,3.5,16,4.2,14
2016/12/14 10:43,3.2,16,3.2,16,3.1,10